Flag for U.S.A. Weather past 2 weeks in South Bend, Indiana, U.S.A.

Now
36 °F

Passing clouds.


Feels Like: 30 °F
Forecast: 25 / 34 °F
Wind: 7 mph from West

Location: Michiana Regional Airport

Current Time: Dec 28, 2014 at 3:51:10 PM

Latest Report: Dec 28, 2014 at 2:54 PM


Visibility: 10 mi

Pressure: 30.16 "Hg

Humidity: 59%

Dew point: 23 °F

Location of South BendLocation

Historic Weather in South Bend — Graph

°F

South Bend temperature yesterday

Maximum temperature yesterday: 49 °F (at 2:54 PM)
Minimum temperature yesterday: 35 °F (at 10:54 PM)
Average temperature yesterday: 44 °F

Past Weeks' High & Low Weather Summary

 TemperatureHumidityPressure
High54 °F (Dec 14, 2:54 PM)97% (Dec 27, 8:54 AM)30.35 "Hg (Dec 27, 8:54 AM)
Low27 °F (Dec 18, 7:54 AM)59% (Dec 23, 2:54 PM)29.44 "Hg (Dec 24, 2:54 PM)
Average38 °F81%30.03 "Hg
* Reported Dec 13 2:54 PM — Dec 28 2:54 PM, South Bend, Weather by CustomWeather, © 2014

Note: Actual official high and low records may vary slightly from our data, if they occured in-between our weather recording intervals... More about our weather records

Advertising

South Bend weather history for previous 24 hours

 ConditionsComfort  
Time TempWeatherWind HumidityBarometerVisibility
2:54 PM
Dec 28
36 °FPassing clouds.7 mph59%30.16 "Hg10 mi
1:54 PM35 °FSunny.9 mph61%30.16 "Hg10 mi
12:54 PM34 °FScattered clouds.5 mph67%30.17 "Hg10 mi
11:54 AM33 °FOvercast.9 mph70%30.19 "Hg10 mi
10:54 AM32 °FOvercast.8 mph73%30.21 "Hg10 mi
9:54 AM32 °FOvercast.8 mph73%30.19 "Hg10 mi
8:54 AM32 °FOvercast.7 mph75%30.17 "Hg10 mi
7:54 AM32 °FOvercast.6 mph75%30.14 "Hg10 mi
6:54 AM32 °FOvercast.9 mph75%30.15 "Hg10 mi
5:54 AM33 °FMostly cloudy.10 mph75%30.14 "Hg10 mi
4:54 AM34 °FOvercast.10 mph73%30.11 "Hg10 mi
3:54 AM35 °FOvercast.7 mph72%30.10 "Hg10 mi
1:54 AM35 °FOvercast.8 mph75%30.07 "Hg10 mi
12:54 AM35 °FOvercast.8 mph75%30.07 "Hg10 mi
11:54 PM
Dec 27
35 °FOvercast.9 mph78%30.09 "Hg10 mi
10:54 PM35 °FOvercast.10 mph78%30.10 "Hg10 mi
8:54 PM36 °FOvercast.10 mph79%30.09 "Hg10 mi
7:54 PM37 °FOvercast.15 mph76%30.08 "Hg10 mi
6:54 PM38 °FMostly cloudy.16 mph76%30.08 "Hg10 mi
5:54 PM38 °FMostly cloudy.13 mph83%30.03 "Hg10 mi
4:54 PM41 °FLight rain. Mostly cloudy.24 mph76%30.05 "Hg10 mi
3:54 PM44 °FLow clouds.21 mph89%30.03 "Hg10 mi
Weather by CustomWeather, © 2014

See weather overviewHow to use our weather pages